This demonstration page uses our WeatherBlox Daily Observations layout. Learn more.

Left ArrowRight Arrow

38.20091, -84.87328

Hourly Observations for August 2, 2018

Temp ( °F °C ) Dew Point ( °F °C ) Humidity (%) Winds ( mph kmh ) Pressure ( in mb ) Visibility ( mi km ) Precip ( " mm )
12:53 am 00:53 Clear 69 20.6 67 19.4 93 93 Calm 30.02 1017 8 13 0.00 0.00
1:53 am 01:53 Mostly Clear 68 20 66 18.9 93 93 Calm 30.02 1017 8 13 0.00 0.00
2:53 am 02:53 Clear 68 20 66 18.9 93 93 Calm 30.01 1016 7 11 0.00 0.00
3:53 am 03:53 Cloudy 68 20 66 18.9 93 93 Calm 30.01 1016 8 13 0.00 0.00
4:12 am 04:12 Mostly Cloudy with Mist and Fog 68 20 66 18.9 93 93 Calm 30.03 1017 6 10 0.00 0.00
4:53 am 04:53 Mostly Cloudy 68 20 67 19.4 96 96 Calm 30.02 1017 7 11 0.00 0.00
5:53 am 05:53 Cloudy with Mist and Fog 68 20 67 19.4 96 96 Calm 30.02 1017 6 10 0.00 0.00
6:53 am 06:53 Cloudy with Mist and Fog 68 20 67 19.4 96 96 Calm 30.04 1017 6 10 0.00 0.00
7:29 am 07:29 Partly Cloudy with Mist and Fog 68 20 66 18.9 93 93 Calm 30.06 1018 6 10 0.00 0.00
7:43 am 07:43 Mostly Cloudy 68 20 66 18.9 93 93 Calm 30.06 1018 7 11 0.00 0.00
7:53 am 07:53 Mostly Cloudy with Mist and Fog 69 20.6 67 19.4 93 93 Calm 30.05 1018 6 10 0.00 0.00
8:04 am 08:04 Cloudy with Mist and Fog 69 20.6 67 19.4 93 93 Calm 30.03 1017 6 10 0.00 0.00
8:39 am 08:39 Cloudy 71 21.7 68 20 90 90 Calm 30.03 1017 8 13 0.00 0.00
8:53 am 08:53 Cloudy with Mist and Fog 70 21.1 69 20.6 97 97 SW 6 9 30.06 1018 2 2 0.00 0.00
9:05 am 09:05 Cloudy with Mist and Fog 70 21.1 69 20.6 97 97 Calm 30.06 1018 3 5 0.00 0.00
9:50 am 09:50 Cloudy 72 22 70 21 94 94 W 3 6 30.06 1018 10 16 0.00 0.00
9:53 am 09:53 Cloudy 71 21.7 68 20 90 90 W 3 6 30.06 1018 10 16 0.00 0.00
10:53 am 10:53 Partly Cloudy 74 23.3 68 20 82 82 Calm 30.06 1018 10 16 0.00 0.00
11:09 am 11:09 Mostly Cloudy 75 23.9 68 20 79 79 NW 5 7 30.06 1018 10 16 0.00 0.00
11:21 am 11:21 Partly Cloudy 75 23.9 69 20.6 82 82 Calm 30.06 1018 10 16 0.00 0.00
11:53 am 11:53 Mostly Sunny 77 25 68 20 74 74 NNW 3 6 30.07 1018 10 16 0.00 0.00
12:09 pm 12:09 Mostly Cloudy 77 25 69 20.6 77 77 SE 5 7 30.06 1018 10 16 0.00 0.00
12:37 pm 12:37 Partly Cloudy 77 25 68 20 74 74 Calm 30.06 1018 10 16 0.00 0.00
12:53 pm 12:53 Mostly Sunny 78 25.6 68 20 71 71 Calm 30.06 1018 10 16 0.00 0.00
1:16 pm 13:16 Mostly Cloudy 78 25.6 67 19.4 69 69 Calm 30.06 1018 10 16 0.00 0.00
1:53 pm 13:53 Partly Cloudy 79 26.1 67 19.4 67 67 Calm 30.06 1018 10 16 0.00 0.00
2:53 pm 14:53 Mostly Sunny 80 26.7 67 19.4 64 64 ESE 3 6 30.05 1018 10 16 0.00 0.00
3:09 pm 15:09 Mostly Cloudy 80 26.7 67 19.4 64 64 Calm 30.03 1017 10 16 0.00 0.00
3:23 pm 15:23 Partly Cloudy 79 26.1 67 19.4 67 67 Calm 30.03 1017 10 16 0.00 0.00
3:53 pm 15:53 Sunny 80 26.7 66 18.9 62 62 Calm 30.04 1017 10 16 0.00 0.00
4:53 pm 16:53 Sunny 81 27.2 64 17.8 57 57 Calm 30.03 1017 10 16 0.00 0.00
5:53 pm 17:53 Sunny 81 27.2 67 19.4 62 62 SE 6 9 30.01 1016 10 16 0.00 0.00
6:53 pm 18:53 Sunny 81 27.2 66 18.9 61 61 Calm 30.01 1016 10 16 0.00 0.00
7:53 pm 19:53 Sunny 79 26.1 67 19.4 67 67 SE 6 9 30.01 1016 10 16 0.00 0.00
8:53 pm 20:53 Clear 77 25 68 20 74 74 SSE 6 9 30.02 1017 10 16 0.00 0.00
9:53 pm 21:53 Clear 74 23.3 69 20.6 85 85 Calm 30.04 1017 10 16 0.00 0.00
10:53 pm 22:53 Clear 72 22.2 68 20 87 87 Calm 30.06 1018 10 16 0.00 0.00
11:53 pm 23:53 Clear 70 21.1 67 19.4 90 90 Calm 30.06 1018 10 16 0.00 0.00

Powered by AerisWeather